Regional Weather Roundup
Issued by NWS

Home | Current Version | Previous Version | Graphics & Text | Print | Product List | Glossary On
Versions: 1 2 3 4 5 6 7 8 9 10 11 12 13 14 15 16 17 18 19 20 21 22 23 24 25 26 27 28 29 30 31 32 33 34 35 36 37 38 39 40 41 42 43 44 45 46 47 48 49 50
123
ASUS45 KBOU 110507
RWRCO

WEATHER ROUNDUP FOR COLORADO
NATIONAL WEATHER SERVICE DENVER/BOULDER CO
1000 PM MST WED FEB 10 2016

NOTE: "FAIR" INDICATES FEW OR NO CLOUDS BELOW 12000 FEET WITH NO
SIGNIFICANT WEATHER AND/OR OBSTRUCTIONS TO VISIBILITY.

COZ001>005-013-030-031-110600-
...NORTHWEST COLORADO...

CITY           SKY/WX    TMP DP  RH WIND       PRES   REMARKS
CRAIG          CLOUDY     6   2  83 CALM      30.38R
HAYDEN         CLOUDY    19  10  68 SE5       30.36S WCI  13
MEEKER         CLOUDY    20  13  74 E3        30.37R
MOUNT WERNER   NOT AVBL
STEAMBOAT SPGS CLOUDY    19  14  81 CALM      30.37
WALDEN         CLOUDY    25   7  46 SE6       30.35F WCI  18
$$

COZ006>008-011-110600-
...WEST CENTRAL VALLEYS...

CITY           SKY/WX    TMP DP  RH WIND       PRES   REMARKS
GRAND JUNCTION CLOUDY    26  24  92 NE5       30.40R WCI  20
MONTROSE       CLOUDY    28  21  75 MISG      30.42S
EAGLE          NOT AVBL
RIFLE          CLOUDY    22  14  71 E3        30.40S
DELTA          CLOUDY    32  26  78 E5        30.42R WCI  27
NUCLA          CLOUDY    32  23  69 E7        30.41S WCI  26
$$

COZ017>023-064>068-110600-
...SOUTHWEST COLORADO...

CITY           SKY/WX    TMP DP  RH WIND       PRES   REMARKS
DURANGO        CLOUDY    26  19  74 N7        30.36S WCI  18
CORTEZ         CLOUDY    24  20  84 E5        30.36F WCI  18
PAGOSA SPRINGS CLOUDY    27  18  69 CALM      30.38S
TELLURIDE      CLOUDY    31   7  36 SE7       30.45F WCI  24
WOLF CREEK PAS CLOUDY    28  -9  19 W7        30.51  WCI  21
$$

COZ009-010-012-014-032>034-037-058>063-110600-
...CENTRAL COLORADO...

CITY           SKY/WX    TMP DP  RH WIND       PRES   REMARKS
ASPEN          CLOUDY    20  10  65 S7        30.41R WCI  11
BUENA VISTA    CLOUDY    35   8  31 NE3       30.34R
COPPER MTN     CLOUDY    27   1  33 NW10G16   30.46  WCI  17
BERTHOUD PASS  FAIR      18   7  62 NW36G43   30.39F WCI  -3
COTTONWOOD PAS CLOUDY    41 -15   9 W9G29     30.39R
GUNNISON       CLOUDY    -2 -20  42 NE3       30.49S
KREMMLING      CLOUDY     1  -4  78 CALM      30.43R
LEADVILLE      CLOUDY    22   1  40 VRB7      30.41R WCI  13
MONARCH PASS   CLOUDY    25   3  39 MISG      30.53R
SALIDA         NOT AVBL
SUNLIGHT       CLEAR     28   9  43 CALM        N/A
WILKERSON PASS CLOUDY    30  -4  22 NW12G23   30.44R WCI  21
$$

COZ069>075-110600-
...SAN LUIS VALLEY/SANGRE DE CRISTO MOUNTAINS...

CITY           SKY/WX    TMP DP  RH WIND       PRES   REMARKS
ALAMOSA        CLOUDY    26  22  84 W5        30.35S WCI  20
LA VETA PASS   CLOUDY    32  12  43 MISG      30.37S
SAGUACHE       CLOUDY    32  16  51 NW10      30.36  WCI  24
$$

COZ035-036-038>040-110600-
...NORTHERN COLORADO FRONT RANGE...

CITY           SKY/WX    TMP DP  RH WIND       PRES   REMARKS
DENVER INTL AP CLOUDY    44  14  29 E3        30.19R
DMNS CITY PARK   N/A     52   6  15 N5G10     30.19R
AURORA         NOT AVBL
FRONT RANGE AP NOT AVBL
ERIE MUNI ARPT CLEAR     38  18  43 E3        30.18R
BOULDER MUN AP CLEAR     54   9  16 SW8       30.18
CENTENNIAL     CLOUDY    43  15  32 SW10      30.20R
BROOMFIELD     MOCLDY    50   9  18 W18       30.19S
FORT COLLINS   CLOUDY    45  16  31 N7        30.18S
LONGMONT       CLOUDY    37  21  52 CALM      30.20
$$

COZ041-046-047-076>085-087-088-110600-
...PIKES PEAK/PALMER DIVIDE AND SOUTHERN FOOTHILLS...

CITY           SKY/WX    TMP DP  RH WIND       PRES   REMARKS
COLO. SPRINGS  CLOUDY    42  21  43 N16       30.22R
A. F. ACADEMY  CLOUDY    45  11  24 N12       30.22R
SCHRIEVER AFB  MOCLDY    48  10  21 NW12G23   30.21R
ELLICOTT       CLOUDY   N/A N/A N/A N6        30.20R
FALCON         NOT AVBL
FORT CARSON    CLOUDY    49  15  25 W5        30.19R
LIMON          CLOUDY    33  23  66 NW7       30.20R WCI  27
MONUMENT HILL  CLOUDY    37  14  38 CALM      30.26R
TRINIDAD       CLOUDY    47   7  19 W14       30.19R
$$

COZ042>045-048>051-090-091-110600-
...NORTHEAST COLORADO...

CITY           SKY/WX    TMP DP  RH WIND       PRES   REMARKS
GREELEY ARPT   CLOUDY    37  21  52 CALM      30.19R
AKRON          CLEAR     37  24  59 NW15      30.15R
BURLINGTON     CLOUDY    37  25  61 W12       30.15R
WRAY           NOT AVBL
STERLING       CLEAR     41  27  56 NW14      30.13R
HOLYOKE        CLEAR     43  28  56 NW10      30.13
FORT MORGAN    CLEAR     41  21  45 NW21      30.16S
$$

COZ086-089-092>099-110600-
...SOUTHEAST COLORADO...

CITY           SKY/WX    TMP DP  RH WIND       PRES   REMARKS
PUEBLO         CLOUDY    54  15  21 W6        30.14R
LA JUNTA       CLOUDY    46  26  45 CALM      30.15R
LAMAR          CLOUDY    50  21  32 E5        30.12R
SPRINGFIELD      N/A     41  19  41 N5        30.14R
$$




USA.gov is the U.S. government's official web portal to all federal, state and local government web resources and services.